Flag Weather past 2 weeks in Eskilstuna, Sweden

Now
34 °F

Fog.


Feels Like: 34 °F
Forecast: 33 / 37 °F
Wind: 1 mph from North

Location: Vasteras / Hasslo

Current Time: Nov 27, 2014 at 6:36:46 PM

Latest Report: Nov 27, 2014 at 6:20 PM


Visibility: 6 mi

Pressure: 30.27 "Hg

Humidity: 100%

Dew point: 34 °F

Location of EskilstunaLocation

Historic Weather in Eskilstuna — Graph

°F

Eskilstuna temperature yesterday

Maximum temperature yesterday: 34 °F (at 2:20 PM)
Minimum temperature yesterday: 25 °F (at 6:50 AM)
Average temperature yesterday: 31 °F

Past Weeks' High & Low Weather Summary

 TemperatureHumidityPressure
High45 °F (Nov 12, 5:20 PM)100% (Nov 14, 9:20 AM)30.51 "Hg (Nov 14, 9:20 AM)
Low25 °F (Nov 26, 6:50 AM)70% (Nov 19, 10:20 AM)29.80 "Hg (Nov 24, 3:50 PM)
Average39 °F90%30.27 "Hg
* Reported Nov 12 5:20 PM — Nov 27 5:20 PM, Eskilstuna, Weather by CustomWeather, © 2014

Note: Actual official high and low records may vary slightly from our data, if they occured in-between our weather recording intervals... More about our weather records

Advertising

Eskilstuna weather history for previous 24 hours

 ConditionsComfort  
Time TempWeatherWind HumidityBarometerVisibility
5:20 PM
Nov 27
34 °FPassing clouds.5 mph100%30.27 "HgN/A
4:50 PM34 °FLow clouds.2 mph100%30.27 "HgN/A
4:20 PM34 °FLow clouds.No wind100%30.27 "HgN/A
3:50 PM34 °FLow clouds.1 mph100%30.27 "HgN/A
3:20 PM34 °FLow clouds.5 mph100%30.27 "HgN/A
2:50 PM34 °FPartly sunny.5 mph93%30.27 "HgN/A
2:20 PM34 °FPartly sunny.3 mph100%30.27 "HgN/A
1:50 PM34 °FBroken clouds.2 mph93%30.24 "HgN/A
1:20 PM34 °FBroken clouds.3 mph93%30.24 "HgN/A
12:50 PM34 °FBroken clouds.2 mph93%30.27 "HgN/A
12:20 PM32 °FPartly sunny.No wind100%30.27 "HgN/A
11:50 AM32 °FPartly sunny.5 mph100%30.27 "HgN/A
11:20 AM32 °FPartly sunny.3 mph100%30.27 "HgN/A
10:50 AM32 °FPartly sunny.2 mph100%30.27 "HgN/A
10:20 AM32 °FPartly sunny.No wind93%30.27 "HgN/A
9:50 AM32 °FPartly sunny.3 mph93%30.24 "HgN/A
9:20 AM32 °FLight freezing rain. Broken clouds.2 mph93%30.24 "Hg5 mi
8:50 AM30 °FIce fog.No wind100%30.27 "Hg5 mi
8:20 AM30 °FPartly sunny.No wind100%30.24 "HgN/A
7:50 AM30 °FPassing clouds.3 mph100%30.24 "HgN/A
7:20 AM30 °FIce fog.3 mph100%30.24 "Hg3 mi
6:50 AM30 °FMostly cloudy.3 mph100%30.24 "Hg1 mi
6:20 AM30 °FIce fog.2 mph100%30.24 "Hg0 mi
5:50 AM30 °FIce fog.2 mph100%30.24 "Hg0 mi
5:20 AM30 °FIce fog.5 mph100%30.24 "Hg0 mi
4:50 AM32 °FIce fog.2 mph93%30.24 "Hg0 mi
4:20 AM30 °FIce fog.No wind100%30.24 "Hg0 mi
3:50 AM30 °FIce fog.1 mph100%30.24 "Hg0 mi
3:20 AM30 °FIce fog.No wind100%30.24 "Hg0 mi
2:50 AM30 °FIce fog.No wind100%30.24 "Hg0 mi
2:20 AM30 °FIce fog.3 mph100%30.24 "Hg0 mi
1:50 AM30 °FIce fog.No wind100%30.24 "Hg0 mi
1:20 AM30 °FIce fog.No wind100%30.27 "Hg0 mi
12:50 AM30 °FIce fog.No wind100%30.27 "Hg0 mi
12:20 AM30 °FIce fog.2 mph93%30.27 "Hg1 mi
11:50 PM
Nov 26
30 °FIce fog.1 mph93%30.27 "Hg1 mi
11:20 PM30 °FIce fog.1 mph100%30.27 "Hg1 mi
10:50 PM30 °FIce fog.2 mph100%30.27 "Hg1 mi
10:20 PM30 °FIce fog.No wind100%30.27 "Hg0 mi
9:50 PM30 °FIce fog.No wind100%30.27 "Hg0 mi
9:20 PM30 °FIce fog.2 mph100%30.27 "Hg0 mi
8:50 PM30 °FIce fog.2 mph93%30.27 "Hg0 mi
8:20 PM30 °FIce fog.6 mph100%30.27 "Hg0 mi
7:50 PM30 °FIce fog.5 mph100%30.27 "Hg0 mi
7:20 PM30 °FIce fog.5 mph100%30.27 "Hg1 mi
6:50 PM32 °FIce fog.3 mph93%30.27 "Hg0 mi
6:20 PM32 °FIce fog.5 mph93%30.27 "Hg0 mi
Weather by CustomWeather, © 2014

See weather overviewHow to use our weather pages